This demonstration page uses our WeatherBlox Daily Observations layout. Learn more.

Left ArrowRight Arrow

41.55636, -103.73856

Hourly Observations for April 29, 2018

Temp ( °F °C ) Dew Point ( °F °C ) Humidity (%) Winds ( mph kmh ) Pressure ( in mb ) Visibility ( mi km ) Precip ( " mm )
12:58 am 00:58 Clear 49 9.4 37 2.8 64 64 SSE 20 31 29.80 1009 10 16 N/A
1:58 am 01:58 Clear 48 8.8 37 2.9 67 67 SSE 16 26 29.75 1008 10 16 N/A
2:58 am 02:58 Clear 45 7.4 37 2.9 73 73 S 6 9 29.73 1007 10 16 N/A
3:58 am 03:58 Clear 45 7 37 2.9 75 75 S 13 20 29.71 1006 10 16 N/A
4:58 am 04:58 Mostly Clear 42 5.8 37 3 82 82 S 9 15 29.69 1006 10 16 N/A
5:58 am 05:58 Mostly Sunny 42 5.7 37 3 83 83 S 6 9 29.70 1006 10 16 N/A
6:58 am 06:58 Sunny 46 7.7 40 4.2 79 79 SSE 6 9 29.71 1006 10 16 N/A
7:58 am 07:58 Sunny 48 9.1 40 4.3 72 72 W 9 15 29.71 1006 10 16 N/A
8:58 am 08:58 Sunny 57 13.7 40 4.3 53 53 N N/A 29.68 1005 10 16 N/A
9:58 am 09:58 Sunny 63 17.4 38 3.6 40 40 S 6 9 29.67 1005 10 16 N/A
10:58 am 10:58 Mostly Sunny 70 20.9 37 2.8 30 30 S 8 13 29.65 1004 10 16 N/A
11:58 am 11:58 Sunny 75 23.9 36 2.4 25 25 SW 6 9 29.62 1003 10 16 N/A
12:58 pm 12:58 Sunny 76 24.2 37 2.8 25 25 E 6 9 29.59 1002 10 16 N/A
1:58 pm 13:58 Sunny 77 25 27 -2.9 16 16 SSW 10 17 29.58 1002 10 16 N/A
2:58 pm 14:58 Sunny 79 25.9 25 -3.8 14 14 SW 18 30 29.56 1001 10 16 N/A
3:58 pm 15:58 Mostly Sunny 79 25.9 24 -4.2 13 13 S 18 30 29.55 1001 10 16 N/A
4:58 pm 16:58 Partly Cloudy 77 24.8 25 -3.8 15 15 S 14 22 29.54 1000 10 16 N/A
5:58 pm 17:58 Sunny 75 24.1 31 -0.5 20 20 SSE 13 20 29.54 1000 10 16 N/A
6:58 pm 18:58 Sunny 71 21.9 35 1.7 26 26 ESE 9 15 29.53 1000 10 16 N/A
7:58 pm 19:58 Mostly Clear 64 18 35 1.6 33 33 N 10 17 29.55 1001 10 16 N/A
8:58 pm 20:58 Mostly Cloudy 62 16.6 33 0.6 34 34 NNW 14 22 29.55 1001 10 16 N/A
9:58 pm 21:58 Partly Cloudy 62 16.5 30 -0.9 31 31 NW 10 17 29.54 1000 10 16 N/A
10:58 pm 22:58 Mostly Cloudy 62 16.7 31 -0.8 31 31 NW 17 28 29.54 1000 10 16 N/A
11:58 pm 23:58 Partly Cloudy 62 16.7 29 -1.9 28 28 NW 7 11 29.51 999 10 16 N/A

Powered by AerisWeather